Torna al catalogo

STARLINK-3881

AttivoComunicazioniVLEO
NORAD 52472·PAYLOAD·🇺🇸 United States

Lanciato May 6, 2022 da Cape Canaveral Space Force Station

Loading…

Prossimi Passaggi (prossime 24 ore)

TLE

AggiornatoSource: CelesTrak SupGP

Epoca: Sep 15, 2026, 02:13 UTC

1 52472C 22049X   26258.09284722  .00008901  00000+0  27006-3 0  2587
2 52472  53.1567 279.1243 0001100  93.9798 299.8051 15.33549254    10

Traccia STARLINK-3881 in tempo reale con AllMySat

Download on the App Store